Anderson, SC

9:31 AM EDT on July 25, 2017 (GMT -0400)
Anderson Regional

Weather History for KAND - September, 2012

Change the Weather History Date:

Saturday, September 29, 2012

  Actual Average Record
Temperature  
Mean Temperature 72 °F -  
Max Temperature 77 °F 78 °F 90 °F (1955)
Min Temperature 64 °F 58 °F 44 °F (2003)
Cooling Degree Days 6    
Growing Degree Days 22 (Base 50)    
Moisture  
Dew Point 65 °F    
Average Humidity 85    
Maximum Humidity 96    
Minimum Humidity 69    
Precipitation  
Precipitation 0.01 in - - ()
Sea Level Pressure  
Sea Level Pressure 29.93 in    
Wind  
Wind Speed 2 mph (SW)    
Max Wind Speed 9 mph    
Max Gust Speed -    
Visibility 10 miles    
Events Rain    
Averages and records for this station are not official NWS values.
T = Trace of Precipitation, MM = Missing Value Source: NWS Daily Summary

Daily Weather History Graph

Daily Weather History Graph

Search for Another Location

Airport or City:

Trip Planner

Search our weather history database for the weather conditions in past years. The results will help you decide how hot, cold, wet, or windy it might be!

Date:

Astronomy

Sep. 29, 2012 Rise Set
Actual Time 7:24 AM EDT 7:17 PM EDT
Civil Twilight 6:59 AM EDT 7:42 PM EDT
Nautical Twilight 6:30 AM EDT 8:11 PM EDT
Astronomical Twilight 6:00 AM EDT 8:40 PM EDT
Moon 6:51 PM EDT (9/29) 6:53 AM EDT (9/29)
Length of Visible Light 12h 42m
Length of Day
11h 52m
Full, 100% of the Moon is Illuminated
Sep 29
Full
Sep 29
Full
Oct 8
Last Quarter
Oct 15
New
Oct 21
First Quarter

Hourly Weather History & Observations

Time (EDT) Temp. Dew Point Humidity Pressure Visibility Wind Dir Wind Speed Gust Speed Precip Events Conditions
12:56 AM 66.9 °F 64.0 °F 90% 30.00 in 10.0 mi Calm Calm - N/A   Clear
1:56 AM 68.0 °F 64.0 °F 87% 30.00 in 10.0 mi Calm Calm - N/A   Clear
2:56 AM 66.9 °F 64.0 °F 90% 30.00 in 10.0 mi Calm Calm - N/A   Clear
3:56 AM 68.0 °F 64.9 °F 90% 29.98 in 10.0 mi Calm Calm - N/A   Clear
4:56 AM 66.9 °F 64.0 °F 90% 29.96 in 10.0 mi NNW 3.5 mph - N/A   Clear
5:56 AM 66.9 °F 64.9 °F 93% 29.96 in 10.0 mi Calm Calm - N/A   Scattered Clouds
7:56 AM 66.0 °F 64.9 °F 96% 29.98 in 7.0 mi Calm Calm - 0.00 in   Overcast
8:56 AM 66.9 °F 64.9 °F 93% 29.98 in 5.0 mi Calm Calm - N/A   Overcast
9:56 AM 69.1 °F 66.0 °F 90% 29.99 in 10.0 mi Calm Calm - N/A   Mostly Cloudy
10:56 AM 70.0 °F 66.0 °F 87% 29.99 in 7.0 mi Calm Calm - 0.00 in Rain Light Rain
11:56 AM 71.1 °F 66.9 °F 87% 29.98 in 10.0 mi Calm Calm - 0.00 in Rain Light Rain
1:56 PM 71.1 °F 68.0 °F 90% 29.93 in 10.0 mi South 3.5 mph - 0.00 in Rain Light Rain
2:56 PM 73.0 °F 66.9 °F 81% 29.91 in 10.0 mi SW 6.9 mph - 0.00 in   Scattered Clouds
3:56 PM 75.0 °F 66.9 °F 76% 29.88 in 10.0 mi SW 6.9 mph - N/A   Scattered Clouds
4:56 PM 77.0 °F 66.0 °F 69% 29.85 in 10.0 mi WSW 9.2 mph - N/A   Clear
5:56 PM 75.9 °F 64.9 °F 69% 29.85 in 10.0 mi WSW 8.1 mph - N/A   Clear
6:56 PM 73.9 °F 66.0 °F 76% 29.86 in 10.0 mi SW 5.8 mph - N/A   Clear
7:56 PM 72.0 °F 64.9 °F 78% 29.86 in 10.0 mi WSW 3.5 mph - N/A   Clear
8:56 PM 70.0 °F 64.9 °F 84% 29.88 in 10.0 mi Calm Calm - N/A   Clear
9:56 PM 69.1 °F 64.9 °F 87% 29.90 in 10.0 mi ENE 6.9 mph - N/A   Clear
10:56 PM 66.0 °F 62.1 °F 87% 29.90 in 10.0 mi ENE 5.8 mph - N/A   Clear
11:56 PM 64.9 °F 62.1 °F 90% 29.90 in 10.0 mi ENE 3.5 mph - N/A   Scattered Clouds